TLEEKTOWN Weather Reports


time (UTC)temp
C
wind
direction
speed
KPH
gust
KPH
rain 1hr
cm
rain 24hr
cm
rain mn
cm
humidity
%
barometer
mb
20260505004528 21 127 0.0 4.8 0.00 0.00 0.00 43 1010.0
20260505004008 21 0 0.0 3.2 0.00 0.00 0.00 43 1010.0
20260505003511 21 231 0.0 6.4 0.00 0.00 0.00 42 1010.0
20260505003030 21 0 0.0 6.4 0.00 0.00 0.00 41 1010.0
20260505002512 21 0 0.0 4.8 0.00 0.00 0.00 42 1010.0
20260505002012 21 0 0.0 4.8 0.00 0.00 0.00 41 1010.0
20260505001528 22 150 0.0 14.5 0.00 0.00 0.00 41 1009.9
20260505001011 22 0 0.0 14.5 0.00 0.00 0.00 40 1010.0
20260505000508 22 0 0.0 6.4 0.00 0.00 0.00 40 1009.9
20260505000031 22 0 0.0 14.5 0.00 0.00 0.00 40 1010.0
20260504235510 22 0 0.0 14.5 0.00 0.00 0.00 39 1010.0
20260504235011 22 0 0.0 11.3 0.00 0.00 0.00 39 1009.9
20260504234533 22 188 0.0 11.3 0.00 0.00 0.00 39 1009.9
20260504234010 22 0 1.6 11.3 0.00 0.00 0.00 39 1009.9
20260504233508 22 0 0.0 3.2 0.00 0.00 0.00 38 1009.8
20260504233031 22 0 0.0 4.8 0.00 0.00 0.00 38 1009.8
20260504232512 22 0 0.0 4.8 0.00 0.00 0.00 38 1009.7
20260504232010 22 98 1.6 19.3 0.00 0.00 0.00 37 1009.7
20260504231532 22 0 1.6 19.3 0.00 0.00 0.00 37 1009.6
20260504231011 22 347 1.6 9.7 0.00 0.00 0.00 37 1009.7
20260504230508 22 0 0.0 14.5 0.00 0.00 0.00 37 1009.6
20260504230030 22 0 0.0 14.5 0.00 0.00 0.00 37 1009.7
20260504225510 22 69 1.6 14.5 0.00 0.00 0.00 36 1009.6
20260504225009 23 215 3.2 12.9 0.00 0.00 0.00 36 1009.6
20260504224535 23 110 1.6 9.7 0.00 0.00 0.00 36 1009.7
20260504224009 23 0 1.6 9.7 0.00 0.00 0.00 36 1009.7
20260504223511 23 0 1.6 8.0 0.00 0.00 0.00 36 1009.8
20260504223032 23 112 1.6 14.5 0.00 0.00 0.00 36 1009.8
20260504222510 23 119 4.8 14.5 0.00 0.00 0.00 35 1009.7
20260504222012 23 117 1.6 14.5 0.00 0.00 0.00 35 1009.6
20260504221530 23 91 3.2 11.3 0.00 0.00 0.00 35 1009.6
20260504221009 23 304 3.2 17.7 0.00 0.00 0.00 34 1009.7
20260504220512 23 86 3.2 17.7 0.00 0.00 0.00 34 1009.7
20260504220030 24 331 6.4 17.7 0.00 0.00 0.00 33 1009.7
20260504215512 24 59 1.6 17.7 0.00 0.00 0.00 35 1009.7
20260504215011 24 109 4.8 17.7 0.00 0.00 0.00 32 1009.5
20260504214539 25 101 4.8 9.7 0.00 0.00 0.00 32 1009.6
20260504214014 24 113 0.0 11.3 0.00 0.00 0.00 35 1009.6
20260504213510 24 174 1.6 17.7 0.00 0.00 0.00 33 1009.6
20260504213030 25 154 6.4 17.7 0.00 0.00 0.00 31 1009.7
20260504212512 25 53 1.6 16.1 0.00 0.00 0.00 32 1009.5
20260504212013 25 78 1.6 11.3 0.00 0.00 0.00 32 1009.6
20260504211530 25 0 1.6 9.7 0.00 0.00 0.00 34 1009.6
20260504211010 24 97 1.6 12.9 0.00 0.00 0.00 33 1009.7
20260504210517 24 187 3.2 12.9 0.00 0.00 0.00 33 1009.7
20260504210030 24 242 3.2 9.7 0.00 0.00 0.00 31 1009.7
20260504205511 25 99 0.0 16.1 0.00 0.00 0.00 32 1009.5
20260504205014 25 237 1.6 16.1 0.00 0.00 0.00 30 1009.6
20260504204530 25 163 4.8 16.1 0.00 0.00 0.00 32 1009.7
20260504204010 25 168 3.2 11.3 0.00 0.00 0.00 30 1009.7
20260504203509 25 0 1.6 9.7 0.00 0.00 0.00 31 1009.8
20260504203030 25 219 1.6 14.5 0.00 0.00 0.00 32 1009.8
20260504202512 25 248 3.2 14.5 0.00 0.00 0.00 30 1009.8
20260504202013 25 309 3.2 11.3 0.00 0.00 0.00 31 1009.9
20260504201529 25 0 1.6 12.9 0.00 0.00 0.00 32 1010.0
20260504201013 25 219 1.6 12.9 0.00 0.00 0.00 30 1010.2
20260504200514 25 0 1.6 14.5 0.00 0.00 0.00 33 1010.2
20260504200035 25 34 1.6 14.5 0.00 0.00 0.00 31 1010.2
20260504195511 25 323 1.6 14.5 0.00 0.00 0.00 35 1010.2
20260504195011 25 91 3.2 14.5 0.00 0.00 0.00 31 1010.2
20260504194531 25 236 3.2 12.9 0.00 0.00 0.00 32 1010.3
20260504194010 24 129 1.6 12.9 0.00 0.00 0.00 34 1010.3
20260504193514 24 341 3.2 12.9 0.00 0.00 0.00 32 1010.4
20260504193030 24 69 1.6 12.9 0.00 0.00 0.00 32 1010.6
20260504192514 24 169 1.6 11.3 0.00 0.00 0.00 33 1010.7
20260504192010 24 136 3.2 12.9 0.00 0.00 0.00 32 1010.8
20260504191533 24 210 1.6 14.5 0.00 0.00 0.00 33 1010.9
20260504191013 24 108 3.2 14.5 0.00 0.00 0.00 33 1011.1
20260504190517 24 337 1.6 14.5 0.00 0.00 0.00 32 1011.0
20260504190028 24 60 3.2 12.9 0.00 0.00 0.00 33 1011.2
20260504185510 24 0 3.2 12.9 0.00 0.00 0.00 33 1011.2
20260504185009 24 304 3.2 8.0 0.00 0.00 0.00 32 1011.2
20260504184536 23 268 1.6 12.9 0.00 0.00 0.00 37 1011.4
20260504184012 23 265 1.6 12.9 0.00 0.00 0.00 35 1011.4
20260504183514 23 271 3.2 12.9 0.00 0.00 0.00 35 1011.5
20260504183034 23 311 1.6 11.3 0.00 0.00 0.00 33 1011.5
20260504182508 23 71 3.2 14.5 0.00 0.00 0.00 36 1011.7
20260504182016 23 223 3.2 14.5 0.00 0.00 0.00 35 1011.7
20260504181532 23 257 4.8 14.5 0.00 0.00 0.00 37 1011.9
20260504181010 22 261 3.2 9.7 0.00 0.00 0.00 33 1011.8
20260504180511 22 340 3.2 17.7 0.00 0.00 0.00 36 1011.9
20260504180030 22 113 3.2 17.7 0.00 0.00 0.00 35 1012.0
20260504175511 22 250 3.2 12.9 0.00 0.00 0.00 35 1012.1
20260504175008 22 256 3.2 11.3 0.00 0.00 0.00 35 1012.1
20260504174528 22 307 1.6 9.7 0.00 0.00 0.00 36 1012.2
20260504174010 22 217 1.6 12.9 0.00 0.00 0.00 35 1012.2
20260504173514 22 0 1.6 12.9 0.00 0.00 0.00 37 1012.3
20260504173030 22 119 4.8 12.9 0.00 0.00 0.00 34 1012.4
20260504172516 22 0 3.2 12.9 0.00 0.00 0.00 37 1012.4
20260504172011 22 216 3.2 12.9 0.00 0.00 0.00 33 1012.5
20260504171530 22 113 1.6 11.3 0.00 0.00 0.00 34 1012.7
20260504171014 22 133 0.0 11.3 0.00 0.00 0.00 35 1012.7
20260504170508 22 336 0.0 9.7 0.00 0.00 0.00 37 1012.7
20260504151010 19 198 0.0 12.9 0.00 0.00 0.00 35 1014.0
20260504150510 19 333 1.6 12.9 0.00 0.00 0.00 36 1013.9
20260504141019 17 114 1.6 9.7 0.00 0.00 0.00 42 1014.1
20260504140510 17 163 1.6 8.0 0.00 0.00 0.00 43 1014.1
20260504130511 14 143 1.6 4.8 0.00 0.00 0.00 50 1014.8
20260504110510 8 0 0.0 1.6 0.00 0.00 0.00 68 1015.0
20260504100508 10 0 0.0 0.0 0.00 0.00 0.00 65 1014.9
20260504081533 8 0 0.0 3.2 0.00 0.00 0.00 74 1015.0
20260504081014 8 0 0.0 1.6 0.00 0.00 0.00 74 1015.1
20260504080517 8 0 0.0 0.0 0.00 0.00 0.00 74 1015.2
20260504050508 7 0 0.0 0.0 0.00 0.00 0.00 66 1015.6
20260504045511 7 0 0.0 0.0 0.00 0.00 0.00 65 1015.6
20260504045016 7 0 0.0 0.0 0.00 0.00 0.00 66 1015.5
20260504044528 7 0 0.0 0.0 0.00 0.00 0.00 70 1015.6
20260504044011 7 0 0.0 0.0 0.00 0.00 0.00 68 1015.6
20260504043512 7 0 0.0 0.0 0.00 0.00 0.00 66 1015.5
20260504043030 7 0 0.0 1.6 0.00 0.00 0.00 66 1015.5
20260504042512 7 0 0.0 1.6 0.00 0.00 0.00 67 1015.5
20260504042011 7 0 0.0 1.6 0.00 0.00 0.00 66 1015.5
20260504041529 7 0 0.0 0.0 0.00 0.00 0.00 65 1015.4
20260504041008 7 0 0.0 0.0 0.00 0.00 0.00 65 1015.4
20260504040511 7 0 0.0 0.0 0.00 0.00 0.00 67 1015.4
20260504040029 7 0 0.0 0.0 0.00 0.00 0.00 68 1015.4
20260504035508 7 0 0.0 0.0 0.00 0.00 0.00 66 1015.5
20260504035010 7 0 0.0 0.0 0.00 0.00 0.00 64 1015.6
20260504034528 7 0 0.0 0.0 0.00 0.00 0.00 67 1015.5
20260504034011 7 0 0.0 0.0 0.00 0.00 0.00 66 1015.5
20260504033508 7 0 0.0 0.0 0.00 0.00 0.00 66 1015.4
20260504033028 7 0 0.0 0.0 0.00 0.00 0.00 67 1015.4
20260504032512 7 0 0.0 0.0 0.00 0.00 0.00 68 1015.3
20260504032013 7 0 0.0 0.0 0.00 0.00 0.00 68 1015.3
20260504031530 7 0 0.0 0.0 0.00 0.00 0.00 68 1015.3
20260504031011 7 0 0.0 0.0 0.00 0.00 0.00 66 1015.3
20260504030512 7 0 0.0 0.0 0.00 0.00 0.00 66 1015.3
20260504030034 7 0 0.0 0.0 0.00 0.00 0.00 67 1015.2
20260504025511 7 0 0.0 0.0 0.00 0.00 0.00 67 1015.3
20260504025014 7 0 0.0 0.0 0.00 0.00 0.00 67 1015.2
20260504024529 7 0 0.0 0.0 0.00 0.00 0.00 65 1015.2
20260504024010 8 0 0.0 0.0 0.00 0.00 0.00 65 1015.1
20260504023509 8 0 0.0 0.0 0.00 0.00 0.00 64 1015.2
20260504023028 8 0 0.0 0.0 0.00 0.00 0.00 64 1015.2
20260504022510 8 0 0.0 0.0 0.00 0.00 0.00 63 1015.1
20260504022009 8 0 0.0 0.0 0.00 0.00 0.00 62 1015.1
20260504021535 8 0 0.0 0.0 0.00 0.00 0.00 60 1015.1
20260504021011 8 0 0.0 0.0 0.00 0.00 0.00 59 1014.9
20260504020511 8 0 0.0 0.0 0.00 0.00 0.00 58 1015.0
20260504020035 8 0 0.0 0.0 0.00 0.00 0.00 59 1015.0
20260504015511 8 0 0.0 0.0 0.00 0.00 0.00 59 1014.9
20260504015011 9 0 0.0 0.0 0.00 0.00 0.00 58 1014.9
20260504014530 9 0 0.0 0.0 0.00 0.00 0.00 55 1014.8
20260504014008 9 0 0.0 0.0 0.00 0.00 0.00 53 1014.7
20260504013511 10 0 0.0 0.0 0.00 0.00 0.00 55 1014.8
20260504013035 10 0 0.0 0.0 0.00 0.00 0.00 55 1014.8
20260504012508 10 0 0.0 0.0 0.00 0.00 0.00 53 1014.8
20260504012008 10 0 0.0 0.0 0.00 0.00 0.00 51 1014.6
20260504011528 10 0 0.0 0.0 0.00 0.00 0.00 51 1014.6
20260504011008 10 0 0.0 0.0 0.00 0.00 0.00 50 1014.7
20260504010508 11 0 0.0 0.0 0.00 0.00 0.00 49 1014.8
20260504010028 11 0 0.0 0.0 0.00 0.00 0.00 46 1014.8
20260504005507 11 0 0.0 0.0 0.00 0.00 0.00 45 1014.7
20260504005011 11 0 0.0 0.0 0.00 0.00 0.00 43 1014.7